#timestamp,LO_Frequency,Hit,StdDev 
1621425615.7,286047000.3,N
1621425635.5,286047000.4,N
1621425655.3,286047002.3,N
1621425675.2,286047002.0,N
1621425695.9,286047003.8,N
1621425715.7,286047001.4,N
1621425735.6,286047002.1,N
1621425755.4,286047004.4,N
1621425775.2,286047001.5,N
1621425795.1,286047001.8,N
1621425796.0,286047001.8,N
1621425815.8,286047003.0,N
1621425835.7,286047005.9,N
1621425855.5,286047002.6,N
1621425875.3,286047001.7,N
1621425895.2,286047001.7,N
1621425915.0,286047004.4,N
1621425915.9,286047004.4,N
1621425935.8,286047004.4,N
1621425955.6,286047002.0,N
1621425975.4,286047003.8,N
1621425995.3,286047002.5,N
1621426015.1,286047000.8,N
1621426035.8,286047001.1,N
1621426055.7,286047002.3,N
1621426075.5,286047002.4,N
1621426095.3,286047002.5,N
1621426115.2,286047000.9,N
1621426135.0,286047002.8,N
1621426135.9,286047002.8,N
1621426155.8,286047002.7,N
1621426175.6,286046998.8,N
1621426195.4,286046998.6,N
1621426215.3,286047000.0,N
1621426235.1,286047000.4,N
1621426255.9,286047001.2,N
1621426275.7,286047001.3,N
1621426295.5,286047002.3,N
1621426315.4,286047002.4,N
1621426335.2,286047000.4,N
1621426355.0,286047000.5,N
1621426355.9,286047000.5,N
1621426375.8,286047002.2,N
1621426395.6,286047001.5,N
1621426415.4,286047001.7,N
1621426435.3,286046999.9,N
1621426455.1,286046999.7,N
1621426475.9,286047002.2,N
1621426495.7,286047003.7,N
1621426515.5,286047003.7,N
1621426535.4,286047003.8,N
1621426555.2,286047001.7,N
1621426575.0,286047000.1,N
1621426575.9,286047000.1,N
1621426595.8,286047000.9,N
1621426615.6,286046999.9,N
1621426635.5,286047001.2,N
1621426655.3,286046996.5,N
1621426675.1,286047001.2,N
1621426695.9,286046998.2,N
1621426715.7,286047002.7,N
1621426735.6,286047000.6,N
1621426755.4,286047000.6,N
1621426775.2,286047000.3,N
1621426795.1,286047002.3,N
1621426796.0,286047002.3,N
1621426815.8,286047001.1,N
1621426835.6,286047000.7,N
1621426855.5,286046999.9,N
1621426875.3,286047001.7,N
1621426895.2,286047001.8,N
1621426915.9,286047001.6,N
1621426935.7,286047002.2,N
1621426955.6,286046999.7,N
1621426975.4,286047001.9,N
1621426995.2,286047000.9,N
1621427015.1,286047001.1,N
1621427016.0,286047001.1,N
1621427035.8,286046998.2,N
1621427055.7,286046998.8,N
1621427075.5,286046996.5,N
1621427095.3,286046999.6,N
1621427115.2,286047002.6,N
1621427135.0,286047002.5,N
1621427135.9,286047002.5,N
1621427155.7,286047001.5,N
1621427175.6,286047002.8,N
1621427195.4,286046999.8,N
1621427215.3,286047000.0,N
1621427235.1,286047004.0,N
1621427236.0,286047004.0,N
1621427255.0,286047005.8,Y
1621427255.9,286047005.8,P
1621427275.8,286047001.7,N
1621427295.6,286047002.8,N
1621427315.4,286047000.1,N
1621427335.3,286046998.2,N
1621427355.1,286046998.5,N
1621427375.8,286046998.8,N
1621427395.7,286047000.6,N
1621427415.5,286047001.1,N
1621427435.4,286047000.4,N
1621427455.2,286046998.1,N
1621427475.0,286046998.9,N
1621427475.9,286046998.9,N
1621427495.8,286046997.6,N
1621427515.6,286046997.9,N
1621427535.5,286046995.2,N
1621427555.3,286046995.1,N
1621427575.1,286046998.0,N
1621427595.9,286046996.9,N
1621427615.7,286046997.7,N
1621427635.6,286046998.0,N
1621427655.4,286046996.2,N
1621427675.2,286046993.4,N
1621427695.1,286046993.3,N
1621427696.0,286046993.3,N
1621427715.8,286046994.2,N
1621427735.6,286046992.7,N
1621427755.5,286046992.3,N
1621427775.3,286046993.2,N
1621427795.2,286046990.3,N
1621427815.9,286046993.0,N
1621427835.7,286046993.0,N
1621427855.6,286046990.2,Y
1621427875.4,286046995.7,P
1621427895.3,286046995.7,P
1621427915.1,286046993.3,P
1621427916.0,286046993.3,Y
1621427935.8,286047000.7,P
1621427955.7,286047000.4,N
1621427975.5,286047002.7,N
1621427995.4,286047002.8,N
1621428015.2,286047002.8,N
1621428035.0,286047000.1,N
1621428035.9,286047000.1,N
1621428055.8,286047000.1,N
1621428075.6,286047000.3,N
1621428095.4,286047000.7,N
1621428115.3,286047000.9,N
1621428135.1,286046998.3,N
1621428155.9,286046996.6,N
1621428175.7,286046999.1,N
1621428195.5,286046998.7,N
1621428215.4,286046996.9,N
1621428235.2,286046995.0,N
1621428255.1,286046995.1,N
1621428256.0,286046995.1,N
1621428275.8,286046997.6,N
1621428295.6,286046994.9,N
1621428315.5,286046997.0,N
1621428335.3,286046996.7,N
1621428355.1,286046997.3,N
1621428375.9,286046997.1,N
1621428395.7,286046999.0,N
1621428415.6,286046997.0,N
1621428435.4,286047000.3,N
1621428455.2,286046999.8,N
1621428475.1,286046998.1,N
1621428476.0,286046998.1,N
1621428495.8,286047001.1,N
1621428515.7,286046999.0,N
1621428535.5,286046999.3,N
1621428555.3,286047000.9,N
1621428575.2,286046999.8,N
1621428595.0,286047002.4,N
1621428595.9,286047002.4,N
1621428615.8,286047002.6,N
1621428635.6,286047002.2,N
1621428655.4,286047001.9,N
1621428675.3,286047000.4,N
1621428695.1,286047000.0,N
1621428715.8,286046999.7,N
1621428735.7,286047001.6,N
1621428755.5,286047003.5,N
1621428775.4,286047003.1,N
1621428795.2,286047003.5,N
1621428815.0,286047003.4,N
1621428815.9,286047003.4,N
1621428835.8,286047003.5,N
1621428855.6,286047003.2,N
1621428875.4,286047003.5,N
1621428895.3,286047003.6,N
1621428915.1,286047002.3,N
1621428935.9,286047000.5,N
1621428955.7,286047002.8,N
1621428975.5,286047002.2,N
1621428995.4,286047004.4,N
1621429015.2,286047002.8,N
1621429035.0,286047001.8,N
1621429036.0,286047001.8,N
1621429055.8,286047001.3,N
1621429075.6,286046998.5,N
1621429095.5,286046998.4,N
1621429115.3,286047000.3,N
1621429135.1,286047001.1,N
1621429155.9,286047000.2,N
1621429175.7,286047000.1,N
1621429195.6,286047002.4,N
